Location: Barrio de Buenos Aires
(28.4500°N, 16.2667°W)
Time: 06:16:30
(UTC+00:00)

CZ-4 R/B - Pass Details

Date: 24 January 2020
Orbit: 534 x 597 km, 97.7° (Epoch: 17 February)

Event Time Altitude Azimuth Distance (km) Brightness Sun altitude
Rises 20:32:27 0° 204° (SSW) 2,726 5.3 -25.1°
Reaches altitude 10° 20:35:16 10° 226° (SW) 1,849 4.7 -25.7°
Maximum altitude 20:37:45 16° 265° (W) 1,519 4.4 -26.3°
Drops below altitude 10° 20:40:16 10° 303° (WNW) 1,879 4.6 -26.8°
Sets 20:43:10 0° 326° (NW) 2,795 5.3 -27.5°
